Wind_Speed
17 15 14 13 12 12 10 9 8 7 5 5 5 3 1 2 1 2 4 6 3 2 3 5 6 4 4 5 6 6 7 8 9 10 10 9 9 9 10 10 10 10 11 11 12 12 13 13 13 13 12 12 12 12 12 12 12 12 13 13 14 15 13 9 10 7 9 12 13 13 12 12 13 12 13 15 15 14 15 14 12 12 15 17 20
18 16 15 15 14 12 11 10 9 8 7 6 5 4 3 1 0 1 4 5 2 3 4 4 4 4 4 5 5 6 8 9 9 9 9 9 9 9 10 11 11 11 12 13 12 12 13 14 14 13 13 13 13 13 13 12 12 12 13 14 15 18 16 13 13 10 10 11 13 13 14 14 13 12 11 12 13 13 13 14 13 12 13 14 16
18 17 17 16 15 14 13 12 10 10 9 7 5 4 4 2 1 1 3 3 1 2 3 3 3 3 3 4 6 7 8 9 8 8 9 9 9 10 10 11 12 12 13 13 13 13 14 14 14 14 13 14 14 14 14 14 13 12 13 14 15 17 17 16 14 13 13 14 14 13 14 15 15 14 10 9 10 11 12 14 13 12 10 11 13
19 18 18 17 16 15 14 13 12 11 10 8 6 4 4 3 2 1 3 2 1 2 3 3 3 2 3 5 7 7 8 8 7 8 8 9 9 10 10 11 12 13 14 14 14 13 12 13 13 12 12 13 14 15 15 14 14 13 12 13 14 15 16 15 14 13 13 14 14 14 14 14 16 16 14 11 9 9 10 12 14 16 13 10 12
21 19 19 18 17 16 16 15 13 12 11 9 8 5 4 5 3 1 2 2 2 1 2 3 2 3 5 6 7 7 7 8 8 8 8 9 9 10 11 12 13 14 15 15 14 14 13 12 11 10 11 12 12 14 14 13 14 14 14 12 12 13 13 14 13 13 13 13 13 14 15 14 15 16 16 16 14 11 9 11 13 18 17 13 12
22 21 20 20 18 17 17 16 14 14 12 10 9 6 5 5 4 3 2 3 3 2 2 2 2 5 7 7 7 8 8 8 8 8 9 9 10 10 11 12 14 15 15 15 17 19 20 18 16 13 12 12 12 13 14 13 12 13 14 13 11 11 12 12 12 12 14 14 13 14 16 16 16 16 16 16 16 17 14 11 12 16 20 18 13
23 22 21 20 19 18 18 17 15 15 13 11 9 7 6 5 4 4 4 4 4 3 3 3 4 6 7 7 8 8 7 8 9 9 9 9 10 10 11 12 14 15 16 17 19 22 23 23 22 20 18 15 13 11 11 12 11 11 13 14 13 12 12 12 12 13 14 14 14 15 16 16 17 17 16 15 16 18 18 13 10 12 18 22 18
23 22 21 20 19 19 19 17 16 15 14 12 10 8 7 6 5 5 5 4 4 4 5 4 4 6 7 7 7 6 6 8 10 11 10 9 9 10 11 12 14 15 16 18 21 22 23 23 23 23 22 21 19 15 13 11 11 12 13 15 16 16 15 14 14 14 14 14 15 15 15 17 17 17 16 17 17 17 17 15 12 11 14 20 22
23 23 22 20 20 19 19 18 17 16 15 13 11 9 8 7 7 7 6 5 4 5 5 5 5 6 7 7 6 4 6 9 10 11 11 10 9 10 11 12 14 15 16 18 20 22 22 22 22 22 22 22 22 22 19 16 14 14 13 14 16 17 18 17 16 15 15 15 14 14 15 16 17 17 17 17 17 16 14 14 15 14 13 15 20
23 23 22 21 21 20 19 19 18 17 16 14 12 10 9 9 8 8 8 6 5 5 5 5 6 7 8 7 4 4 8 11 10 10 11 11 11 10 10 11 12 13 15 16 18 19 20 20 20 20 20 21 21 22 22 21 19 17 15 14 15 17 18 18 17 15 15 16 15 14 14 16 16 16 15 14 14 16 14 14 15 15 15 14 15
24 23 23 21 21 21 20 20 19 18 17 15 14 12 11 10 10 9 9 8 7 6 6 6 6 7 8 6 4 6 11 12 11 10 11 12 12 11 10 10 11 11 11 12 13 13 12 13 13 14 16 19 19 20 21 21 20 19 18 16 16 16 18 18 17 16 15 15 15 14 14 14 14 15 14 13 14 15 14 12 13 14 14 13 12
25 23 23 23 22 22 21 21 20 19 18 17 16 14 12 12 11 11 10 9 8 7 6 6 7 8 8 6 4 7 11 12 12 12 12 12 12 11 10 9 10 10 10 10 10 9 9 9 9 9 10 12 13 14 16 17 18 18 18 18 17 17 17 17 17 16 14 14 14 15 13 12 13 15 15 14 13 14 13 12 12 13 12 12 12
25 24 23 24 23 23 22 22 21 20 19 18 17 15 14 13 13 12 11 10 9 8 7 7 8 8 8 6 5 7 11 12 14 14 12 11 11 11 10 9 9 9 10 10 9 9 9 8 7 7 6 6 6 8 11 13 14 15 17 17 18 17 16 16 16 15 14 13 13 14 12 11 14 15 14 13 13 13 13 12 11 12 11 9 12
24 24 24 24 24 23 23 22 22 21 20 19 19 17 15 15 14 13 13 12 11 9 9 9 8 8 9 7 6 8 10 12 15 15 13 12 12 12 10 10 10 10 9 9 9 8 8 8 7 5 4 6 8 9 10 10 11 13 15 16 17 18 18 18 16 15 14 14 14 15 14 14 16 16 14 12 13 14 14 14 13 15 11 6 12
24 24 24 24 24 24 23 23 23 22 21 21 20 18 16 17 16 15 14 13 12 11 10 10 9 9 10 8 7 8 10 12 15 16 14 13 13 12 10 10 10 10 9 9 8 8 7 7 6 6 7 9 9 9 9 9 8 10 13 14 16 18 19 20 19 17 16 16 15 15 15 16 17 17 15 12 11 12 13 13 15 15 5 10 12
23 24 24 24 25 24 24 24 24 23 23 22 21 19 19 18 17 16 15 14 13 12 11 11 10 10 10 9 8 8 10 12 14 16 15 14 13 11 9 9 10 10 10 9 8 9 9 7 6 7 10 11 9 7 7 7 7 7 9 9 11 14 16 17 18 17 17 16 16 15 15 17 18 19 18 15 11 10 10 12 17 17 10 11 12
23 24 25 25 25 25 25 25 25 24 24 24 22 20 20 20 18 18 17 16 15 14 13 12 11 11 11 11 9 8 11 12 14 16 16 14 12 11 9 9 10 9 9 7 7 9 10 9 8 9 11 11 9 7 5 6 7 6 5 5 6 8 10 12 13 14 14 14 15 15 15 16 17 18 19 18 15 12 13 16 19 19 15 11 10
24 25 25 26 26 26 25 25 26 26 25 24 23 22 22 21 20 19 19 17 16 15 14 13 12 12 12 11 10 9 11 13 14 17 16 14 12 11 9 10 10 10 8 7 8 10 11 9 8 8 10 11 9 7 5 6 6 5 4 5 6 7 7 8 8 9 10 11 12 13 14 14 15 16 17 18 18 16 17 17 17 16 16 15 11
25 26 26 26 26 26 26 26 26 26 25 25 24 24 23 22 21 20 19 18 17 16 15 14 13 13 13 12 11 10 11 13 15 17 17 15 13 9 7 9 11 11 9 8 9 11 11 8 6 7 9 10 9 7 4 5 6 5 3 4 7 7 7 6 5 5 6 6 7 9 11 11 11 12 14 16 17 17 16 16 15 15 15 16 15
24 24 24 24 25 25 25 26 27 26 25 25 25 24 24 22 22 22 20 18 18 17 16 15 15 14 14 13 13 11 11 13 16 17 17 16 14 9 6 7 10 11 11 10 9 10 10 8 7 7 8 8 7 6 4 3 3 3 3 6 8 6 4 3 3 4 3 3 4 6 7 9 9 9 11 13 14 14 14 15 14 14 14 14 16
21 21 22 22 24 25 25 26 27 26 25 26 25 24 24 23 23 23 21 19 19 18 17 17 16 15 15 14 14 12 11 13 15 17 18 17 15 11 6 6 8 10 11 11 10 9 9 9 9 9 8 7 6 6 5 4 3 1 2 5 5 4 3 2 4 5 4 3 5 6 5 7 8 8 8 11 12 12 12 13 14 14 14 14 13
18 17 19 19 21 23 24 25 27 26 25 26 26 24 24 23 23 23 21 20 20 19 19 18 17 16 15 15 15 14 12 13 15 16 18 19 17 13 8 6 8 9 9 10 11 11 11 10 10 10 9 7 7 5 4 3 3 2 2 3 4 3 3 1 4 5 3 3 6 6 6 6 7 7 7 8 10 10 9 10 12 11 12 14 13
18 17 19 21 22 23 24 25 26 25 25 27 27 25 24 23 23 23 21 20 21 20 19 18 17 17 16 15 16 15 13 14 15 16 18 20 19 15 11 9 9 8 7 8 12 15 14 11 10 11 10 8 7 6 5 4 3 3 4 6 6 5 3 1 4 4 3 4 4 5 5 5 5 5 5 5 6 7 7 8 8 7 7 8 9
17 19 21 21 21 21 23 25 26 24 25 27 26 25 25 24 23 23 22 21 21 20 19 19 18 17 17 16 16 16 15 15 16 17 18 20 20 18 14 11 11 10 7 6 10 15 15 11 10 11 11 9 8 7 6 5 4 5 6 7 6 3 1 3 3 2 2 3 4 5 4 4 3 3 4 4 5 6 5 5 5 5 6 4 4
16 18 20 21 22 22 22 24 24 23 24 27 26 25 26 25 24 24 23 21 21 21 20 20 19 18 18 18 18 18 17 16 16 17 18 19 21 20 17 13 12 12 10 6 8 14 14 10 10 12 11 9 8 7 6 5 5 7 8 7 5 1 3 3 2 0 2 3 3 4 5 4 3 4 6 6 5 5 5 4 4 5 7 4 1
16 17 18 22 25 25 23 24 24 23 24 27 26 25 26 26 24 24 24 22 22 21 21 20 20 19 19 19 19 19 19 17 18 19 19 19 21 22 20 16 15 14 11 7 7 12 11 9 10 12 11 10 10 8 7 7 6 7 9 7 3 1 3 2 0 1 1 2 3 4 4 3 2 4 6 5 4 4 5 6 5 5 5 3 2
16 18 19 21 23 25 25 26 26 24 24 25 25 24 26 26 25 25 25 24 22 22 22 22 21 20 20 20 20 20 20 19 19 21 22 22 22 23 22 20 17 16 12 9 9 12 11 9 10 11 11 11 11 10 9 8 7 8 9 7 2 2 3 2 2 2 1 1 3 3 3 3 1 2 3 3 3 4 5 5 5 4 5 4 4
17 18 19 20 22 24 25 27 27 25 25 26 25 25 26 26 26 26 27 27 26 25 24 23 23 23 22 22 21 21 21 21 22 24 26 26 24 25 25 23 21 18 15 12 12 12 11 10 10 11 13 13 12 11 10 9 9 10 9 6 5 5 6 4 4 4 2 2 2 2 2 2 2 1 2 3 2 3 4 4 4 4 5 4 6
19 20 19 20 22 23 24 26 28 27 26 26 27 26 28 29 28 27 28 29 28 27 26 25 25 25 24 24 24 23 23 24 24 24 25 27 27 27 27 27 25 22 18 15 15 13 11 11 12 13 14 14 13 12 11 10 11 11 9 8 9 8 5 4 6 6 4 2 3 2 2 2 2 2 2 3 2 1 3 4 3 4 5 4 6
20 20 20 21 22 23 24 26 28 27 26 26 26 26 27 29 28 27 27 29 29 28 27 25 25 25 24 24 25 26 25 25 25 24 23 25 27 26 26 27 27 25 20 17 16 15 13 13 14 14 15 14 14 14 13 13 14 13 12 11 11 10 8 6 7 7 5 4 3 3 3 2 2 2 2 3 2 1 2 4 3 4 5 4 6
20 21 21 22 24 25 25 26 28 28 27 26 26 25 25 27 28 27 26 28 29 29 27 26 25 25 25 24 24 25 25 24 25 24 22 23 25 26 25 25 26 26 24 20 18 16 15 15 15 15 16 16 16 16 16 17 17 16 15 14 13 12 10 9 8 7 6 5 4 4 3 3 2 3 2 2 3 2 1 2 1 2 3 3 5
23 22 23 24 26 28 27 26 28 29 28 26 26 25 24 25 27 27 26 27 29 30 29 27 25 25 25 24 23 24 26 25 26 26 23 22 24 25 24 24 24 25 25 24 21 18 16 16 17 17 17 18 18 18 19 20 19 18 16 15 15 14 12 11 11 8 7 6 6 6 5 4 3 3 3 3 3 2 1 1 1 1 1 2 3
25 24 24 25 26 28 28 27 27 29 28 27 27 27 25 23 25 26 25 25 28 30 31 30 28 26 26 26 23 24 27 27 27 27 25 24 25 25 24 24 25 26 27 26 25 22 19 18 18 19 20 20 20 20 21 21 20 19 18 17 16 15 14 13 13 11 9 8 8 8 6 6 5 5 4 4 3 2 2 2 1 0 0 1 2
27 26 26 25 25 27 28 27 27 28 29 28 27 28 26 25 25 27 25 23 25 29 31 32 31 28 27 27 24 23 26 27 27 27 27 26 26 26 26 25 25 26 28 28 27 24 22 21 20 20 21 21 21 22 22 21 20 19 18 17 17 16 16 16 16 13 11 10 10 9 8 8 7 6 6 6 4 3 3 3 2 1 1 2 2
28 27 28 28 26 26 29 29 27 27 29 29 28 28 28 26 25 27 28 27 27 28 31 33 34 32 30 28 26 24 25 27 27 28 28 28 28 28 28 28 27 28 29 28 26 24 24 23 22 21 21 21 22 22 22 21 20 19 18 17 17 18 19 19 17 14 12 12 11 10 10 9 8 7 7 6 6 5 4 3 4 4 3 1 2
27 26 28 30 28 26 28 30 29 28 29 30 29 29 30 29 26 27 29 30 29 28 29 32 34 34 32 30 28 25 25 26 28 29 29 30 31 31 31 31 31 31 31 30 27 25 24 24 23 22 21 21 21 22 22 21 21 20 19 18 18 19 20 20 17 16 14 13 12 12 12 11 10 9 8 7 7 6 5 4 5 6 4 3 4
27 26 26 28 30 28 27 29 30 30 30 31 30 29 29 30 29 26 26 29 30 29 28 29 30 31 30 29 28 27 26 27 28 30 30 31 32 33 34 33 32 31 31 31 30 27 26 26 25 24 23 22 21 21 21 22 22 21 21 20 20 20 21 19 18 18 17 15 14 15 14 12 11 10 10 9 9 8 7 6 5 4 3 4 6
27 27 26 27 28 29 27 27 29 31 31 31 31 29 28 29 30 28 26 27 30 30 28 27 30 33 35 34 31 29 29 29 30 32 33 34 35 35 34 33 32 31 31 32 32 31 29 28 27 26 25 24 23 22 22 22 23 22 22 22 21 21 21 20 19 20 20 18 16 17 15 13 12 12 11 11 10 9 8 8 7 5 4 5 5
25 29 30 28 28 29 29 27 28 30 30 29 29 29 28 27 28 28 27 25 28 30 29 27 29 34 38 39 36 34 34 36 37 39 39 39 40 38 35 33 32 31 31 31 33 33 32 30 28 27 27 25 24 23 23 23 23 24 24 24 23 22 22 22 23 23 22 20 19 18 17 15 14 14 13 13 12 11 10 10 10 7 5 5 5
25 28 30 30 30 32 31 29 29 30 30 30 29 29 28 28 28 29 28 26 26 28 30 29 28 31 37 42 43 43 42 41 42 43 44 43 43 41 38 35 33 33 32 31 32 33 34 32 30 29 29 28 26 25 24 25 25 25 25 25 25 25 25 26 26 26 25 23 21 20 19 18 17 16 15 14 14 13 11 11 11 10 8 7 6
26 25 26 29 32 33 32 30 30 30 30 32 31 29 29 29 29 29 30 29 27 27 29 31 31 32 37 44 49 50 49 47 45 44 45 46 46 44 42 39 36 35 34 33 32 32 33 33 32 31 30 30 29 27 26 26 27 27 27 27 28 27 27 28 28 28 27 26 24 22 21 20 20 18 17 16 15 14 13 12 12 12 11 9 7
26 22 21 24 30 32 32 31 31 30 30 31 33 32 30 30 30 30 30 30 30 29 29 30 31 31 37 45 51 53 52 49 46 45 44 44 45 46 45 43 40 38 36 35 34 33 32 33 33 33 32 32 32 31 29 29 29 29 29 29 30 30 29 29 30 29 29 28 26 25 23 22 21 20 19 17 16 16 15 14 13 12 11 10 9
29 26 24 26 30 33 34 33 31 29 29 30 32 33 33 31 31 32 31 31 31 30 29 29 29 30 34 43 50 52 50 46 44 44 44 44 44 46 47 46 44 42 40 37 36 34 33 33 33 34 34 34 34 34 33 32 32 32 32 31 32 33 32 31 31 31 31 30 29 27 26 24 23 22 20 19 19 18 17 16 15 13 12 11 10
26 25 25 26 27 31 34 34 32 30 31 31 32 34 35 34 32 32 31 31 31 31 30 30 30 29 31 40 49 52 49 44 42 42 43 44 45 47 48 47 47 45 42 40 37 36 35 34 34 34 35 35 34 35 35 35 35 35 35 34 34 35 34 34 34 33 33 32 31 30 28 27 26 24 23 22 22 21 19 17 17 15 14 13 12
24 24 25 24 22 25 30 33 32 32 32 31 31 32 34 34 32 31 31 31 31 31 31 31 30 28 30 38 48 53 50 45 43 42 42 43 45 46 47 47 47 46 44 43 40 38 37 36 35 35 36 36 36 36 37 37 37 38 38 37 37 38 38 38 37 35 34 34 33 32 32 31 29 27 25 24 24 23 21 20 19 18 16 15 13
25 27 29 28 26 26 29 32 32 31 30 30 29 29 30 32 32 32 31 32 32 32 32 32 31 29 29 36 45 50 49 45 42 41 40 39 39 42 44 45 45 46 45 44 43 42 41 39 38 37 37 38 37 37 38 39 39 39 40 40 39 40 39 39 37 36 35 35 35 34 34 33 32 30 28 27 26 24 22 21 21 20 19 17 15
27 27 28 29 26 23 23 26 29 30 29 28 29 28 28 30 31 32 32 33 34 33 32 32 32 30 29 34 42 47 48 46 43 41 40 40 40 41 43 43 43 44 44 44 44 44 43 42 41 39 39 39 39 38 39 40 41 41 41 41 41 40 39 39 38 37 36 36 36 36 36 35 34 32 30 28 27 26 24 23 22 22 21 20 18
27 26 25 25 25 22 21 23 26 28 28 28 29 29 29 29 30 31 33 33 33 33 31 31 32 31 30 33 39 43 46 47 45 42 42 43 42 40 41 42 42 42 42 43 44 44 44 44 44 42 41 41 41 40 40 41 42 42 42 42 42 42 41 40 39 38 38 37 37 37 36 35 35 34 32 30 29 28 27 25 24 23 22 21 19
24 24 23 24 24 25 26 27 28 28 28 29 28 28 29 30 30 30 31 31 32 33 32 32 32 32 31 32 36 39 42 44 44 43 42 42 40 39 41 43 43 43 42 43 44 44 44 45 45 44 43 43 42 43 43 43 43 44 44 44 43 43 42 41 41 40 39 39 38 37 36 36 35 34 34 33 30 28 28 27 26 24 23 22 20
24 25 26 28 26 24 26 28 28 27 28 28 28 28 29 29 29 30 31 30 30 31 32 33 33 33 32 32 35 38 40 41 43 43 43 42 41 40 40 41 42 43 44 44 45 45 45 45 44 44 44 44 44 44 45 46 46 46 47 46 46 45 44 43 42 41 41 40 40 38 37 36 35 35 35 34 32 30 29 28 27 26 25 24 23
21 22 23 25 25 23 24 26 26 24 24 25 26 26 28 29 29 29 30 31 30 31 33 34 34 34 32 31 33 35 38 39 40 40 41 42 42 41 39 39 41 42 43 44 44 44 45 46 46 46 46 46 46 46 47 48 49 49 49 48 48 48 47 45 44 43 43 42 41 40 39 38 36 36 36 36 35 32 31 30 29 28 26 25 25
Wind_Direction
168 165 162 162 163 166 166 157 158 164 157 147 135 125 102 75 40 329 39 51 21 340 11 40 62 64 60 72 69 60 59 55 49 52 58 60 57 52 51 56 58 55 55 55 53 50 51 52 49 46 45 42 39 34 33 39 38 37 36 35 36 23 21 78 113 105 91 81 68 57 54 62 63 58 63 63 65 66 57 53 55 47 41 41 44
169 166 163 163 165 165 161 157 159 156 149 149 150 153 157 130 156 317 33 43 4 350 38 62 68 71 81 80 73 62 60 61 57 56 60 64 65 59 56 58 58 56 54 54 53 52 52 53 49 47 48 47 44 40 39 42 46 48 43 41 41 33 40 76 95 84 68 61 65 63 54 53 53 55 68 72 72 70 62 61 63 58 47 38 34
171 166 163 163 166 165 160 160 159 153 155 160 157 150 150 152 168 56 35 29 355 17 56 86 91 94 100 86 76 70 68 69 67 64 64 65 68 67 63 62 61 58 55 53 53 54 54 53 49 48 50 51 48 45 43 43 47 52 51 47 46 44 51 67 80 79 64 48 51 56 55 51 43 41 55 74 85 84 69 63 63 63 59 46 33
170 165 164 164 166 167 162 160 160 159 161 162 161 158 158 173 183 63 48 65 81 39 68 97 104 108 102 85 78 74 75 79 79 76 72 71 72 72 69 68 66 63 60 57 56 56 58 58 55 56 58 56 52 48 45 44 44 49 53 53 52 52 56 61 71 81 80 65 53 47 52 54 46 40 40 48 70 92 92 77 62 58 61 62 48
169 166 165 165 167 169 162 160 164 164 163 163 163 165 172 182 175 87 80 125 128 89 88 102 101 93 93 89 87 83 80 81 82 84 81 78 79 78 75 73 70 69 66 62 62 64 68 68 65 67 68 63 59 54 49 46 44 44 49 54 58 59 61 64 68 75 82 80 69 56 51 51 48 44 39 37 41 50 81 98 74 58 58 66 62
170 167 165 165 169 169 163 163 167 166 167 167 164 172 184 181 151 124 134 137 131 133 131 131 109 95 94 89 87 86 84 85 84 86 87 84 85 84 80 77 75 74 71 70 72 73 74 74 71 72 71 67 64 62 58 52 45 43 45 48 56 64 67 69 72 74 74 73 69 62 53 45 43 41 37 39 37 31 39 75 84 63 53 54 59
170 166 165 167 170 169 165 166 169 167 167 168 170 178 176 155 133 133 140 140 143 144 137 122 91 89 92 89 89 88 90 96 94 90 89 88 90 90 86 84 82 79 77 78 80 78 76 75 72 70 69 67 64 64 65 61 56 54 51 48 52 59 64 68 69 70 72 70 65 59 52 44 40 37 35 41 44 32 24 33 62 65 52 45 43
170 166 166 168 169 170 167 166 168 167 166 169 177 178 160 144 143 144 142 149 153 143 137 127 105 99 97 96 99 100 108 113 106 99 96 93 94 94 92 91 89 85 83 83 83 81 76 73 71 69 68 67 65 65 69 73 71 65 60 59 59 57 58 61 62 61 62 65 64 58 52 45 38 35 36 36 31 24 17 17 30 53 56 43 35
172 167 168 170 169 171 169 166 167 168 167 172 178 170 151 146 152 150 147 148 139 136 140 138 127 119 108 104 111 131 138 127 112 103 102 101 99 98 95 96 95 91 88 86 85 83 78 74 72 70 69 69 68 67 67 71 73 69 66 69 71 65 59 56 57 57 53 51 52 54 53 45 36 31 31 27 17 12 18 22 23 36 50 41 31
173 170 170 171 170 170 170 167 167 169 170 172 174 167 155 153 154 152 152 152 144 143 145 141 137 127 115 110 119 144 146 136 121 110 109 107 104 103 101 101 101 100 95 90 87 83 78 75 71 69 70 69 69 68 67 65 67 68 70 74 77 75 68 58 54 57 56 47 40 43 49 46 38 29 24 25 22 18 24 28 22 28 42 36 20
175 173 171 171 172 172 170 169 168 170 171 172 171 169 163 160 159 155 153 153 150 150 149 145 138 126 121 122 130 140 145 144 134 122 116 113 109 107 106 105 106 107 104 100 97 88 79 74 70 70 70 67 64 64 66 66 65 67 70 74 77 78 74 64 55 54 60 57 46 42 44 42 36 28 25 31 30 21 22 30 23 20 35 40 24
176 175 173 172 174 173 171 170 170 170 172 172 171 169 165 162 162 159 155 153 153 156 159 151 137 128 127 128 133 142 148 152 146 134 124 117 113 112 111 111 110 110 111 111 109 105 101 96 88 80 72 64 58 55 58 62 65 68 70 72 76 77 76 72 64 59 61 62 55 47 42 40 34 27 29 33 31 25 24 29 21 8 21 49 46
177 176 174 174 175 175 173 172 171 171 174 173 169 168 167 166 165 162 159 157 157 161 164 157 148 142 137 134 138 147 151 154 151 141 130 120 115 113 112 112 112 111 112 113 115 116 116 112 104 89 75 78 82 70 61 59 62 70 74 74 74 73 73 74 72 70 69 68 64 56 48 47 41 33 32 34 32 27 18 17 13 355 2 58 63
180 178 176 176 177 175 175 174 172 172 173 171 169 169 170 168 166 164 162 160 161 165 167 164 160 154 146 145 152 155 153 155 154 147 135 122 115 110 109 111 111 111 112 114 117 121 121 123 119 107 107 117 111 95 84 77 70 71 74 74 71 68 65 64 64 67 69 69 68 63 58 54 46 40 39 38 34 26 10 1 354 338 339 75 74
183 180 177 178 178 176 177 176 172 173 173 171 170 172 171 167 165 166 166 163 164 168 170 170 169 163 156 157 165 165 159 157 157 152 140 127 118 113 113 116 113 113 116 114 112 110 111 122 127 124 131 130 117 101 96 97 89 73 68 69 68 65 61 56 54 56 61 65 66 65 62 56 49 44 42 41 41 32 16 7 2 353 11 123 86
185 183 180 180 179 178 179 177 173 173 173 170 172 174 171 168 167 168 167 166 167 170 174 175 174 169 163 165 175 173 165 164 164 159 149 135 124 119 122 124 121 122 121 120 125 125 117 124 138 137 137 134 125 114 101 101 108 89 70 65 61 55 52 48 47 49 53 58 60 60 59 54 48 43 41 42 47 45 42 41 32 28 59 113 86
187 186 182 182 181 180 180 178 174 174 173 171 174 175 171 169 170 170 169 168 169 171 175 178 179 177 170 171 183 182 171 170 169 163 154 145 136 133 136 138 136 135 133 135 149 142 127 130 145 144 141 140 137 128 102 94 110 106 89 87 67 43 35 33 35 40 44 48 50 48 48 47 43 38 36 39 44 51 54 45 31 26 33 44 63
190 189 186 185 184 182 182 179 176 175 175 173 175 175 171 171 173 173 171 171 171 173 175 178 181 183 178 178 189 191 180 176 174 167 159 154 150 146 145 148 147 143 143 152 164 156 142 141 151 148 144 146 146 139 109 90 100 101 99 105 87 52 32 23 21 25 29 35 38 38 38 38 35 31 30 33 39 47 52 42 26 25 30 23 31
194 192 190 187 184 184 183 181 178 177 176 175 175 174 172 172 174 174 174 172 172 173 176 178 182 184 183 183 189 194 189 182 179 174 167 163 163 155 143 153 158 153 148 152 161 164 162 160 159 152 151 154 157 154 131 96 96 94 90 106 99 78 60 51 41 27 19 22 31 35 39 41 36 27 22 27 36 41 46 47 37 33 35 27 26
200 195 192 188 186 186 185 182 180 179 177 176 176 175 173 174 175 175 174 174 174 175 176 179 182 183 184 184 184 192 199 191 184 181 176 173 174 166 140 149 165 165 157 154 159 170 177 178 171 164 162 163 166 169 167 149 131 113 91 108 120 119 98 58 29 8 348 354 25 36 47 56 51 34 20 24 34 38 40 47 47 43 45 41 35
205 200 193 189 188 187 187 184 180 180 179 176 174 175 174 175 176 175 175 175 176 177 178 179 180 181 185 186 184 192 207 202 191 186 183 182 182 176 156 147 164 172 168 164 165 172 180 183 179 175 174 172 172 175 180 188 198 198 101 108 127 156 188 262 312 316 317 2 48 51 57 63 59 48 30 23 30 37 38 44 50 52 56 55 43
208 201 191 196 200 191 186 184 181 180 180 176 174 174 175 176 177 177 178 178 177 179 179 177 177 179 183 188 186 190 205 208 199 191 188 188 188 186 178 160 160 168 175 178 176 173 181 190 188 182 182 180 179 178 178 183 187 179 148 132 130 142 155 279 328 335 357 53 64 60 54 55 57 55 45 30 30 36 40 46 53 52 53 54 49
206 199 193 204 210 196 183 182 181 181 180 177 175 174 174 176 177 178 180 179 178 179 179 177 177 179 181 188 190 190 200 208 202 194 191 191 191 192 190 178 171 170 178 190 186 178 182 194 192 187 189 189 186 183 176 174 172 157 147 141 134 131 128 9 352 10 52 71 77 78 64 53 56 59 52 37 32 31 29 36 45 44 41 45 44
203 197 194 201 205 193 182 180 182 183 182 178 176 175 174 176 177 179 183 181 178 179 180 179 180 180 182 187 190 190 198 208 206 199 194 194 194 196 196 189 183 182 181 189 189 184 187 196 196 192 195 194 191 191 183 174 172 163 151 144 142 137 53 353 344 10 87 87 87 99 95 68 50 59 69 60 38 24 13 11 18 18 17 21 37
202 197 195 196 195 189 183 179 182 186 184 180 178 177 176 176 177 180 184 184 181 182 183 184 185 184 185 188 189 189 195 206 209 202 197 198 198 199 201 197 192 194 195 197 195 190 192 198 196 195 198 196 193 193 187 183 178 168 158 152 151 160 335 331 314 313 118 112 99 98 102 95 58 51 65 65 42 23 18 13 11 5 354 339 54
203 198 197 194 189 186 183 179 182 189 188 184 184 182 179 178 179 180 184 187 186 185 187 189 189 187 188 190 190 189 190 199 207 202 198 200 201 201 204 202 198 201 206 204 192 189 189 192 194 196 198 196 194 191 187 188 189 178 173 171 168 333 332 331 104 105 86 106 111 106 109 110 61 41 60 63 38 25 27 26 32 30 8 350 145
204 201 200 195 189 187 184 180 182 188 189 188 188 187 183 182 181 181 185 188 189 189 190 192 192 190 189 190 191 189 187 193 203 202 198 199 201 202 204 205 203 204 204 194 182 182 182 185 193 198 200 199 201 202 197 195 197 188 181 179 189 276 255 218 166 152 135 112 113 113 123 129 69 42 78 83 41 25 26 28 36 30 13 28 97
204 203 201 195 190 189 187 184 184 187 189 192 194 190 187 187 186 186 189 190 190 191 193 194 195 193 190 189 189 187 186 191 201 204 201 199 199 200 202 205 205 203 199 192 185 183 185 188 192 200 203 203 206 210 208 208 206 196 190 198 223 235 230 213 193 186 178 155 136 124 147 160 124 86 128 123 74 26 23 39 44 19 2 38 79
205 203 201 197 193 192 190 188 188 189 191 195 199 197 193 191 190 191 194 196 195 194 195 197 198 197 194 192 190 187 188 194 204 210 207 203 202 201 201 204 204 199 196 199 195 187 188 194 196 201 204 206 210 213 215 219 216 210 214 223 224 227 228 205 191 191 189 185 176 168 181 174 145 149 155 126 109 18 27 55 47 9 4 47 82
207 203 201 199 195 192 190 189 191 193 195 198 202 202 199 197 196 195 197 200 200 199 199 200 200 200 199 197 196 195 194 197 205 211 210 206 206 205 203 204 204 195 191 200 203 196 195 199 201 203 205 207 212 214 214 219 222 222 226 223 217 222 225 211 201 200 194 195 196 188 193 185 156 159 142 119 151 222 45 64 46 5 7 48 75
209 206 203 202 198 194 193 191 191 195 199 200 202 202 199 198 200 201 201 202 202 202 204 205 205 204 203 203 202 201 201 200 203 208 209 205 205 206 204 204 203 196 192 196 198 194 196 200 202 206 209 209 213 216 215 218 221 221 219 213 213 220 216 202 202 205 194 193 198 188 188 190 164 155 152 151 179 193 66 60 33 359 14 67 73
206 206 204 203 200 198 197 195 192 196 201 201 201 201 197 193 196 201 204 205 205 205 205 207 209 208 207 208 206 202 201 202 202 204 207 204 202 203 202 201 199 196 195 198 197 193 196 203 205 208 212 213 215 218 218 218 217 215 211 206 208 215 213 205 203 200 191 197 201 192 190 196 178 161 166 177 182 175 147 158 165 3 8 109 104
204 206 206 205 202 199 199 199 197 199 201 200 199 201 199 191 190 195 199 201 205 206 206 209 212 211 207 210 212 205 201 202 201 201 203 202 199 198 198 198 197 194 194 198 201 199 202 209 211 212 214 215 216 219 221 220 216 211 208 205 204 207 210 211 206 197 191 199 198 189 189 194 184 177 180 183 191 193 175 171 169 162 276 128 120
205 207 207 205 202 199 200 202 201 199 201 202 200 200 201 197 192 191 191 191 196 202 205 208 211 213 209 209 212 209 203 201 200 199 200 198 196 194 193 193 195 196 197 200 202 203 207 214 217 217 216 216 216 218 219 218 214 210 208 206 204 202 202 205 205 200 200 203 197 192 194 191 185 192 197 192 192 191 174 174 186 158 81 54 76
207 210 209 207 204 201 201 203 203 201 202 204 202 200 201 200 194 190 191 192 193 197 201 204 207 211 212 210 210 207 204 200 198 197 196 194 191 189 188 187 190 196 200 203 205 207 211 216 220 223 222 219 217 217 217 214 211 210 209 206 202 198 197 201 203 202 201 203 199 196 197 192 189 198 197 184 181 187 184 175 167 154 129 94 113
208 212 212 210 207 204 201 203 205 204 203 205 205 202 200 201 198 193 193 196 197 198 200 203 204 206 210 212 211 206 201 199 197 195 194 193 190 187 186 187 190 195 200 205 208 211 214 217 221 225 228 226 221 217 215 213 209 209 210 208 203 198 197 200 202 199 196 197 197 195 193 191 192 197 194 184 185 190 188 175 165 167 181 194 175
210 213 214 212 210 208 204 203 206 207 205 206 207 205 201 200 201 197 192 194 198 200 200 200 200 200 203 207 208 204 199 197 197 195 194 194 193 192 191 192 194 197 201 205 208 211 215 217 219 222 226 229 226 220 215 212 209 208 209 209 205 201 199 200 200 198 196 196 196 197 196 193 193 195 193 189 192 190 183 177 177 189 205 187 170
217 215 216 214 211 210 208 205 206 207 207 206 206 206 203 200 201 200 196 193 194 198 200 198 195 196 199 200 200 197 193 190 189 191 192 193 194 195 195 197 198 200 204 208 209 211 214 217 218 219 222 226 227 223 217 211 208 208 208 208 206 203 202 200 198 197 196 195 196 199 200 194 194 199 196 190 190 192 187 182 183 191 186 163 155
227 221 219 216 211 209 210 208 206 207 207 206 206 207 206 202 200 201 202 197 192 194 198 198 196 198 200 198 193 189 187 185 186 188 190 192 195 197 198 200 202 204 207 210 211 212 214 216 217 218 219 221 224 224 219 213 208 207 207 207 205 203 202 199 197 196 196 195 196 201 199 192 192 200 202 195 191 193 193 190 187 186 179 171 176
236 225 219 216 212 210 208 208 207 206 207 207 207 207 207 205 202 201 204 203 197 193 195 199 200 200 199 197 193 190 189 189 191 192 192 194 196 198 200 202 204 207 209 210 212 214 215 216 217 217 218 219 221 222 219 214 209 207 207 206 204 204 203 201 199 198 198 197 197 200 199 193 191 198 201 198 195 194 194 193 192 187 180 176 185
242 226 217 218 217 211 208 209 209 207 206 207 208 209 209 207 205 204 205 206 204 199 197 200 204 204 201 200 200 198 197 196 197 197 197 198 198 200 202 205 206 208 210 211 212 214 215 216 216 217 217 217 218 219 219 214 209 206 206 206 205 204 204 203 201 201 201 199 198 201 200 195 193 197 199 197 196 195 194 193 194 194 191 186 183
242 228 219 224 224 215 209 211 212 209 206 206 208 209 210 209 207 207 207 207 208 207 203 203 206 206 204 203 204 203 202 201 200 200 201 202 202 203 206 208 209 210 211 212 212 213 214 215 215 215 215 215 215 216 216 213 208 206 205 205 205 204 205 205 204 204 204 202 200 200 201 198 196 198 198 195 193 194 193 193 194 195 195 194 189
242 231 224 226 226 220 214 213 214 211 208 207 207 208 210 210 209 209 209 208 209 210 210 208 208 207 206 206 205 204 203 204 204 203 203 204 206 207 209 211 212 212 213 213 213 213 213 214 215 215 215 215 214 213 214 212 209 205 205 206 205 205 205 206 205 205 206 205 202 200 201 200 197 197 197 196 194 194 194 194 194 191 190 193 194
245 238 229 223 221 219 217 214 214 214 212 210 208 208 208 209 210 210 210 210 211 211 212 212 210 208 206 204 202 201 202 205 207 207 206 206 208 210 211 213 214 214 213 214 214 214 213 214 215 216 216 216 215 214 214 213 210 207 206 206 206 205 206 207 207 206 206 205 203 200 200 199 198 196 195 196 196 196 195 195 194 191 189 191 193
246 242 239 233 226 223 221 217 214 214 214 212 210 209 208 209 209 209 209 211 212 212 213 214 213 210 206 201 200 200 202 205 208 209 209 209 210 211 213 214 214 214 214 214 214 213 213 214 215 215 215 215 215 214 214 214 213 210 208 208 208 209 209 210 210 209 208 206 203 201 199 199 198 197 195 196 198 197 195 195 195 192 190 191 193
241 231 232 233 229 223 222 220 216 214 214 213 212 211 210 209 210 210 210 211 212 213 214 216 215 212 205 201 200 201 203 205 208 210 210 211 213 215 215 216 216 216 216 215 214 214 214 213 214 215 215 215 214 214 214 214 214 213 211 211 213 214 215 214 212 211 210 208 205 202 201 200 199 198 197 198 199 197 195 196 197 195 193 191 191
249 236 233 235 230 222 222 223 218 214 213 214 214 213 212 211 211 212 212 212 212 211 212 215 216 214 207 201 201 203 204 206 209 210 209 211 215 217 217 217 217 217 216 216 216 215 215 215 214 215 215 215 214 213 213 213 214 213 212 213 215 217 217 215 212 212 212 210 208 205 204 202 201 198 197 199 200 197 194 195 198 198 197 194 192
255 251 246 241 231 221 223 229 225 216 213 214 215 215 214 213 212 212 213 213 211 210 210 212 215 214 208 202 203 205 207 207 209 210 210 211 214 215 215 216 217 217 217 218 218 217 217 216 215 215 215 215 214 213 212 212 212 212 212 212 214 217 217 215 213 212 211 210 209 208 207 206 203 200 198 199 201 198 194 193 196 197 197 196 195
258 258 259 253 237 221 219 226 226 219 214 214 214 215 216 214 213 213 214 214 213 211 210 211 213 214 211 206 206 209 209 209 210 211 212 211 212 213 213 214 216 217 217 218 219 218 218 218 217 216 216 215 214 213 213 212 212 212 212 212 214 216 217 216 213 212 211 210 208 208 209 209 206 203 200 200 201 199 195 193 195 196 195 194 193
253 248 251 254 248 232 225 229 229 221 214 213 214 215 216 215 214 214 214 215 215 214 213 212 213 214 213 211 210 211 211 211 211 211 212 212 212 213 213 214 215 216 218 219 219 219 219 219 218 217 217 217 216 214 214 213 213 213 214 214 214 215 216 215 214 212 211 209 207 208 208 207 206 204 201 200 199 199 196 194 194 196 196 194 192
260 255 256 257 254 244 238 239 237 227 218 216 216 216 216 216 215 214 214 214 214 214 214 214 214 214 213 211 210 209 211 213 213 213 213 213 213 213 214 215 216 217 218 219 220 220 219 218 217 218 219 218 217 216 215 215 215 216 216 215 215 215 216 215 214 213 212 210 208 208 208 207 205 204 202 199 198 198 198 196 195 195 196 195 194
Height
814 814 814 815 816 817 818 819 820 821 822 823 823 824 825 826 826 827 826 826 827 827 826 826 826 826 826 826 826 826 826 826 826 825 825 825 825 825 825 825 825 825 825 825 825 824 824 824 824 824 824 824 824 823 823 823 823 822 822 821 821 820 819 819 821 823 824 825 825 825 825 824 824 824 824 824 824 825 824 824 824 823 822 822 822
813 813 813 814 815 817 818 819 820 821 822 823 823 824 825 826 826 826 826 826 827 826 826 827 827 827 827 827 827 826 826 826 826 826 826 826 826 826 826 826 826 826 826 826 826 825 825 825 825 825 825 825 825 824 824 824 824 824 823 823 822 821 820 820 821 823 824 825 825 826 826 825 825 825 825 825 825 825 825 825 825 824 824 823 823
811 812 812 813 814 816 817 818 819 820 821 823 823 824 825 825 826 826 826 827 827 827 827 827 827 827 827 827 827 827 827 827 827 828 827 827 827 827 827 827 827 827 827 827 826 826 826 825 825 826 826 826 826 826 825 825 825 825 825 824 824 823 823 822 823 824 826 826 826 827 827 826 826 826 826 826 825 825 825 825 826 825 825 825 824
810 810 811 812 813 815 816 817 819 820 821 822 823 824 824 825 825 825 826 827 827 827 827 827 828 827 827 827 827 828 828 828 828 828 828 829 828 828 828 828 828 828 828 828 827 827 826 826 826 826 827 827 827 827 827 827 826 826 826 826 826 825 825 825 825 826 827 827 828 828 828 828 828 827 827 826 826 826 825 825 826 826 825 825 825
808 809 809 810 812 814 815 816 818 819 821 822 823 823 824 824 825 825 826 827 827 827 827 828 828 827 827 828 828 828 828 829 829 829 829 829 829 829 829 829 829 829 829 829 828 828 827 827 827 827 827 828 828 828 828 829 828 827 827 827 827 827 827 827 827 827 828 829 829 830 830 829 829 829 828 827 827 827 827 826 826 826 826 826 826
805 806 808 809 810 812 814 815 817 818 820 821 822 823 823 824 824 825 826 827 827 828 828 828 828 828 828 828 829 829 829 829 829 830 830 830 830 830 830 830 831 830 831 830 830 829 828 828 829 829 829 829 829 829 829 829 829 828 828 828 829 829 829 829 829 829 829 830 830 831 831 831 831 830 830 829 828 828 828 828 828 827 827 826 826
803 805 806 807 809 811 812 814 816 817 819 820 821 822 822 823 824 825 826 826 827 828 828 828 828 828 829 829 829 829 829 829 829 830 831 831 831 831 831 832 832 832 832 832 831 831 830 830 830 830 830 830 831 831 830 830 830 830 829 829 830 830 830 830 830 831 831 831 832 832 832 833 832 832 832 831 830 830 829 829 829 829 828 827 827
802 803 805 806 808 809 811 813 814 816 818 819 821 821 822 823 824 824 825 826 827 827 828 828 829 829 829 829 830 829 829 829 830 830 831 831 832 832 832 832 833 833 833 833 832 832 832 832 832 832 833 832 832 832 832 832 832 832 831 831 831 831 831 831 832 832 832 833 833 834 834 834 834 834 833 832 831 831 831 830 830 830 829 828 828
800 801 803 804 806 808 810 811 813 815 817 818 820 821 821 822 823 824 825 826 827 827 828 829 829 829 830 830 829 829 830 830 830 830 831 831 832 833 833 833 833 834 834 834 834 834 834 834 835 835 835 835 835 834 834 834 834 834 834 833 832 832 833 833 833 834 834 834 835 835 835 836 835 835 835 834 833 833 833 832 831 831 831 830 830
798 799 801 803 805 807 808 810 812 814 815 817 819 819 820 822 822 823 824 825 826 827 828 829 829 829 829 829 829 829 830 830 831 831 831 832 832 833 834 834 834 835 835 835 836 836 836 837 837 838 838 837 837 837 836 836 836 836 836 835 835 834 834 835 835 836 836 836 837 837 837 837 837 837 836 836 835 834 834 833 832 832 832 831 831
795 797 798 801 803 805 807 808 810 812 814 815 817 818 820 821 822 823 824 825 826 827 828 828 829 829 829 829 829 829 830 831 831 832 832 832 833 833 834 835 835 836 836 836 837 838 838 839 839 840 840 840 840 839 839 839 839 839 838 838 837 837 837 837 837 838 838 838 839 839 839 839 839 838 837 837 835 835 835 835 834 833 833 833 833
792 795 796 799 801 803 805 806 808 810 812 814 815 817 819 820 821 822 823 824 825 826 828 828 829 829 829 829 830 830 830 831 832 833 833 833 833 834 835 836 836 836 837 837 838 839 839 840 841 841 842 842 842 842 842 842 841 841 841 840 840 840 839 839 839 839 839 840 840 840 840 840 840 839 838 837 836 836 836 835 835 834 834 834 835
791 792 794 797 799 801 803 805 806 809 810 812 814 815 817 818 820 821 822 823 825 826 827 828 829 829 830 829 830 830 830 831 832 833 833 834 834 834 835 836 836 837 838 838 839 840 840 841 842 842 843 843 843 843 844 844 843 843 843 842 842 842 841 841 840 840 841 841 841 841 841 841 840 840 839 838 837 837 836 836 836 835 835 835 836
789 790 792 795 797 799 801 802 804 807 808 810 812 814 816 817 818 820 821 822 824 825 827 828 828 829 829 829 830 830 831 831 832 833 834 834 835 835 836 837 837 838 839 839 840 840 841 842 842 843 843 843 844 844 845 845 845 845 844 844 844 843 843 842 842 842 842 842 842 842 843 842 841 841 840 839 838 837 836 836 836 835 835 836 837
787 789 790 793 795 797 799 801 803 805 806 808 810 812 814 815 816 818 819 821 822 824 826 827 828 829 829 829 829 830 831 831 832 833 834 835 835 836 837 837 838 839 839 840 841 841 841 842 842 842 843 844 844 845 845 846 846 846 845 845 845 845 844 844 844 844 843 843 843 844 844 843 843 842 841 840 839 838 837 837 836 834 835 837 837
785 787 788 790 793 795 797 799 800 802 804 806 808 810 812 813 815 817 818 820 821 823 825 826 827 828 829 829 829 830 830 831 832 833 834 835 836 836 837 838 839 839 840 841 841 841 842 842 842 843 843 844 845 845 846 846 846 846 846 846 846 846 845 845 845 845 845 845 845 845 845 844 844 843 842 841 840 839 838 837 835 834 835 837 837
782 784 786 788 790 792 794 796 798 800 802 804 806 808 809 811 813 815 816 818 820 821 823 825 826 827 828 828 828 829 830 831 832 833 834 835 835 836 837 838 839 840 841 841 841 842 842 842 842 843 844 844 845 846 846 846 846 847 847 847 847 847 846 847 847 847 847 846 846 846 845 845 845 844 844 843 841 840 838 837 837 837 837 838 838
780 781 783 785 787 789 792 794 796 798 800 802 804 806 807 809 811 813 815 816 818 820 822 824 825 826 827 828 828 828 829 830 831 832 834 835 835 836 837 838 839 840 840 841 841 842 842 842 843 843 844 845 845 846 846 846 846 847 847 847 847 847 847 847 848 848 848 847 847 847 846 846 845 845 844 844 842 841 840 840 841 840 839 839 839
776 778 780 782 785 787 790 792 794 796 798 800 802 804 806 808 810 811 813 815 816 818 820 822 824 825 826 827 827 828 829 830 831 832 833 834 835 835 836 838 838 839 840 841 841 842 842 843 843 844 844 845 846 846 846 846 846 846 847 847 847 848 848 848 848 848 848 848 847 847 847 847 846 846 845 845 844 843 843 843 843 842 841 842 841
774 776 778 781 783 785 787 790 792 794 796 798 800 802 804 806 808 810 812 813 815 817 818 820 822 824 825 826 826 827 828 829 830 832 832 834 835 835 836 837 838 839 839 840 841 841 842 842 843 844 844 845 846 846 846 847 846 847 847 847 847 848 849 849 849 849 848 848 848 848 848 848 848 847 847 846 846 845 845 845 845 844 843 843 843
773 776 778 780 782 784 786 788 790 792 795 796 798 801 803 805 807 808 810 812 814 815 817 819 821 822 824 825 825 826 827 828 829 831 832 833 834 834 835 836 837 838 839 839 840 840 841 842 843 843 844 845 846 846 846 847 847 847 847 847 848 848 849 849 849 848 848 849 849 849 849 849 849 848 848 847 847 847 846 846 846 846 845 845 845
772 774 776 779 781 782 784 786 788 791 793 795 796 799 801 803 805 807 809 811 812 814 815 817 819 821 822 823 825 825 826 827 828 829 831 832 833 834 834 835 836 837 838 839 839 840 840 841 842 843 844 845 845 846 846 847 847 847 847 848 848 848 849 849 849 848 849 849 849 849 849 849 849 849 849 848 848 848 848 848 847 847 847 847 847
770 772 775 778 781 781 782 784 787 789 791 793 795 797 799 802 804 806 808 809 811 812 814 815 817 819 821 822 823 824 825 825 826 828 829 831 832 833 834 835 835 836 837 838 838 838 839 841 842 843 844 845 845 846 846 847 847 847 848 848 848 849 849 849 848 848 849 849 849 849 850 850 849 849 849 849 849 849 849 849 849 848 848 848 848
768 769 771 775 779 781 780 782 786 788 790 792 794 795 797 800 802 804 806 807 809 811 812 814 815 817 819 820 822 823 823 824 825 827 828 829 831 832 833 834 835 835 836 837 837 837 838 840 842 842 843 844 845 846 846 847 847 847 848 848 848 849 849 848 849 849 849 849 849 849 850 850 850 849 849 849 849 850 849 849 849 849 848 849 849
765 766 768 771 776 778 779 781 784 787 789 791 792 793 795 797 799 802 804 805 807 809 810 812 813 815 817 818 819 821 821 822 824 825 827 828 829 831 832 833 834 835 835 836 836 836 838 840 841 842 843 844 845 845 846 846 847 847 848 848 848 848 848 848 848 849 849 849 849 850 849 850 850 850 849 849 850 850 849 849 849 849 848 849 849
762 764 766 768 770 773 776 778 782 785 787 789 790 791 793 794 797 799 801 803 805 806 808 810 811 812 814 815 817 818 819 820 821 823 825 827 828 829 831 832 833 834 835 835 836 836 837 839 840 841 843 843 844 845 846 846 847 847 848 848 848 848 848 848 848 849 849 849 849 850 850 850 850 850 849 849 850 850 849 849 849 849 849 849 849
761 762 763 765 767 770 772 775 778 782 785 787 789 790 791 792 794 795 797 800 801 803 805 806 808 809 810 812 814 815 817 818 818 820 822 824 826 828 829 831 832 833 834 835 836 836 837 839 840 841 842 843 844 844 845 845 846 847 847 847 848 848 848 848 848 848 849 849 849 849 849 850 850 850 850 850 850 850 850 849 849 849 849 849 849
760 760 761 763 765 767 769 772 775 778 781 784 786 787 787 789 790 791 792 794 796 798 801 802 804 805 806 808 810 812 814 815 815 816 818 820 822 825 827 828 830 832 833 834 835 836 837 838 839 841 842 842 843 844 844 845 845 846 846 847 847 847 848 848 848 848 848 849 849 849 849 849 849 850 850 850 850 850 850 850 850 849 849 849 850
758 759 759 761 763 764 767 769 772 774 777 780 782 783 783 784 785 787 788 790 792 794 796 798 800 801 802 804 806 807 809 810 811 812 815 817 819 821 823 825 827 830 832 833 834 836 837 837 839 840 840 841 842 843 843 844 844 845 845 845 846 847 847 847 847 848 848 848 848 849 849 849 849 850 850 850 850 850 850 850 850 850 849 849 850
756 757 757 758 760 762 764 766 769 771 774 776 779 780 780 781 782 783 785 787 789 791 793 795 797 798 800 801 802 803 804 806 808 810 813 815 817 818 820 822 825 828 831 832 833 835 836 836 837 838 839 840 841 841 842 843 843 844 844 844 845 845 845 846 846 847 847 848 848 848 848 848 849 849 849 849 850 850 850 850 850 850 850 850 850
754 754 755 755 757 758 760 763 765 768 770 773 775 776 777 779 780 781 783 784 786 789 791 792 794 796 797 798 799 801 802 804 805 808 810 813 815 817 819 821 823 826 829 830 831 833 834 835 836 837 838 838 839 840 841 841 841 842 842 843 844 844 844 845 845 845 846 847 847 847 848 848 848 849 849 849 849 850 850 850 850 850 850 850 851
750 751 752 752 753 755 757 759 761 764 766 768 771 773 774 775 776 778 780 782 784 786 788 790 792 793 795 796 797 798 800 801 802 805 807 810 813 815 817 820 822 825 827 828 830 831 832 833 834 834 835 836 836 837 838 838 839 840 840 840 841 842 843 844 844 844 845 846 846 847 847 847 848 848 848 849 849 849 850 850 850 851 851 851 851
745 747 748 749 750 752 754 755 757 760 761 764 766 768 769 770 771 774 776 779 781 783 785 787 789 790 792 793 794 795 797 798 800 802 804 807 810 812 815 817 819 822 824 825 827 828 830 831 831 832 832 833 833 834 835 835 836 837 837 838 839 840 841 842 842 843 844 845 845 846 846 847 847 847 848 849 849 849 849 850 850 851 851 851 851
741 743 744 745 746 748 750 752 754 755 757 759 761 763 765 766 767 769 772 775 778 780 781 783 785 787 789 790 791 793 794 795 797 799 802 804 807 810 813 816 818 820 821 822 823 825 826 827 828 828 829 830 830 831 832 833 833 834 835 836 837 838 839 840 840 842 843 843 844 844 845 846 846 846 847 848 848 849 849 850 850 850 851 851 851
737 738 740 741 742 744 745 748 750 751 753 755 757 759 760 762 763 765 767 769 772 774 776 778 781 783 785 786 788 790 792 793 795 797 799 802 805 808 811 814 816 818 819 820 820 821 823 824 824 825 826 826 827 828 829 829 831 831 832 834 835 835 836 837 838 840 841 841 842 843 843 844 845 845 846 847 848 848 849 849 850 850 850 851 851
732 735 736 737 738 740 741 743 745 747 749 751 752 754 755 757 759 760 763 765 768 770 772 774 777 779 782 783 785 787 789 791 793 795 797 799 801 804 806 809 811 813 814 816 817 818 819 821 821 822 823 823 824 825 826 826 827 829 830 831 832 833 833 834 836 838 839 840 841 841 842 843 843 844 845 846 847 848 848 848 849 849 850 851 851
729 731 732 733 734 736 737 738 740 742 744 746 748 750 751 753 755 756 758 761 764 766 768 771 773 776 779 780 782 785 787 789 791 793 795 797 798 800 802 804 806 808 809 811 813 814 815 817 818 819 819 820 821 821 822 823 824 826 827 829 830 830 830 832 834 836 837 838 839 839 840 841 842 843 844 845 846 847 847 848 848 849 850 850 850
726 726 727 729 730 732 733 734 736 738 740 742 744 746 747 748 750 752 754 756 759 761 764 766 768 770 772 775 778 781 784 787 789 791 792 794 795 796 798 799 801 803 804 806 808 809 811 812 813 815 816 817 817 818 819 820 821 823 824 826 827 828 828 830 832 833 834 835 836 837 838 839 841 841 842 843 844 845 846 846 847 848 849 850 850
722 722 723 724 725 727 729 730 732 733 735 737 739 741 743 744 746 748 750 752 754 756 759 761 763 764 765 769 773 777 779 781 783 784 786 788 789 791 793 795 796 798 799 801 803 804 806 807 809 810 812 813 814 815 816 817 818 820 821 823 824 825 826 827 829 830 831 833 833 834 835 837 839 839 840 842 843 844 844 845 846 847 848 849 849
717 718 718 718 720 722 724 725 727 728 730 732 734 736 738 739 741 743 745 747 749 751 753 756 757 758 760 762 764 768 771 773 775 776 778 780 783 785 787 789 791 792 794 796 797 799 800 802 804 806 807 809 810 811 812 813 815 816 818 819 821 822 823 824 825 826 828 829 831 831 832 834 836 837 838 840 841 842 843 844 845 846 847 847 848
711 712 712 714 716 717 719 721 722 722 724 727 729 731 733 734 736 738 740 742 744 745 747 749 751 752 753 755 756 758 761 763 766 769 771 773 775 778 780 782 784 786 788 790 792 794 795 797 799 801 803 804 806 807 808 809 811 812 814 815 817 818 819 820 822 823 824 826 828 829 830 832 833 834 836 837 839 840 841 842 843 844 845 846 846
707 707 709 712 714 713 714 716 717 718 720 721 723 725 728 729 731 733 735 736 738 740 741 743 745 746 747 748 749 752 754 755 758 762 765 767 769 771 773 775 777 780 782 784 786 788 790 792 793 795 797 799 800 802 804 805 806 808 810 811 813 814 815 817 818 820 821 823 825 826 827 829 831 832 833 835 837 838 839 840 841 842 843 844 845
702 702 704 708 709 709 709 711 712 714 715 716 717 719 722 724 726 728 729 731 733 734 736 737 739 741 742 742 744 747 750 753 754 756 758 761 763 764 766 768 770 773 775 778 780 783 785 786 788 790 791 793 795 796 798 799 800 802 805 806 808 810 811 812 814 816 817 819 821 823 824 826 828 829 831 833 834 836 837 838 840 841 842 843 843
698 699 700 701 702 704 704 705 707 709 709 710 712 714 716 718 720 722 723 726 727 729 730 732 734 735 737 738 740 743 746 749 751 751 752 754 756 757 759 761 763 766 769 772 775 777 780 781 783 784 786 788 790 791 793 794 795 797 799 801 802 804 806 807 809 811 813 815 817 819 821 822 824 826 828 829 831 833 835 836 837 839 840 841 842
695 697 698 697 699 701 702 701 701 703 704 706 708 709 710 712 714 716 718 720 721 723 725 727 729 730 731 732 735 737 739 741 744 746 747 748 750 751 753 755 758 760 763 765 768 771 773 775 777 778 780 782 784 786 788 789 790 792 793 795 797 798 799 801 803 806 808 810 812 814 816 818 820 823 824 826 828 830 832 833 835 836 838 839 840
691 692 693 693 694 696 697 697 697 698 699 701 703 704 706 707 708 710 712 713 715 717 720 721 723 725 725 727 729 731 733 736 738 739 742 745 747 748 749 751 752 754 756 759 762 764 766 769 771 772 774 776 778 780 782 783 785 786 788 790 791 793 794 797 799 801 803 805 807 810 812 814 816 818 820 822 824 826 829 830 832 833 835 836 837
686 687 687 687 688 690 692 693 693 693 694 696 698 699 701 702 703 704 706 707 708 711 713 715 718 719 720 721 723 725 727 730 732 733 736 739 741 743 745 746 748 749 751 753 756 758 760 762 764 766 768 769 772 774 776 778 779 781 783 785 787 789 790 793 795 797 799 801 803 805 807 809 812 814 816 818 820 822 825 827 828 830 832 833 835
682 682 683 683 683 684 688 691 691 689 689 691 692 694 695 697 698 699 700 701 703 705 707 709 711 713 715 716 717 718 720 723 725 727 729 731 733 735 738 740 742 744 746 748 750 752 754 756 758 760 762 763 765 768 770 771 773 775 777 779 781 783 785 788 790 792 794 796 798 801 803 805 808 810 812 813 816 818 820 822 824 826 828 830 832
679 680 681 681 680 680 682 685 686 684 684 685 687 689 690 692 693 694 695 696 698 699 701 702 704 707 709 710 711 713 714 717 719 722 724 725 727 729 730 733 736 738 740 742 744 746 748 750 752 754 756 757 759 762 763 765 767 769 770 773 775 777 780 782 784 787 789 792 794 796 799 801 804 806 808 810 812 814 817 819 821 823 825 827 829
675 675 677 678 677 677 677 678 678 678 678 680 681 683 684 686 687 688 689 691 692 694 695 696 698 700 702 704 705 707 709 710 712 715 717 719 721 723 724 727 730 732 734 735 737 740 742 744 746 749 751 752 753 755 757 758 760 761 763 765 768 771 774 776 779 781 784 786 789 792 794 797 799 802 804 806 808 810 812 815 817 819 821 823 825
672 672 672 672 672 672 673 673 673 673 674 675 676 677 679 680 681 682 684 685 686 688 689 690 691 693 696 698 700 702 704 705 707 709 711 714 716 718 720 722 724 726 728 730 732 734 735 737 739 742 745 746 747 749 750 751 753 754 756 759 762 765 767 770 773 775 778 780 783 786 789 792 794 796 799 801 804 806 808 810 812 814 817 819 821